CAPE
299 413 688 655 408 503 525 479 436 435 401 431 478 526 593 692 702 712 609 550 462 626 647 599 652 598 619 546 652 407 100 99 52 48 32 21 9 26 82 58 29 6 6
206 241 631 559 367 528 494 588 587 528 330 246 323 482 393 397 543 369 411 422 412 344 426 427 567 472 438 341 505 413 267 61 23 8 20 42 59 43 52 16 13 11 6
39 123 712 536 426 510 496 574 469 376 291 228 316 498 167 381 323 172 158 129 242 384 310 227 408 433 99 82 139 634 256 54 105 28 23 24 20 28 9 21 16 25 5
0 206 623 495 391 501 568 628 485 467 344 234 225 228 92 44 73 49 79 159 150 458 220 336 280 155 31 89 172 211 215 151 65 59 13 16 18 8 7 3 16 3 3
0 133 497 492 382 469 462 574 556 562 516 395 381 144 62 53 36 72 74 101 78 370 486 322 296 98 80 113 222 289 120 33 41 23 8 6 4 3 4 15 33 25 64
1 109 297 392 324 471 471 513 548 538 502 489 561 378 163 21 0 0 2 164 186 256 415 345 128 14 0 0 7 17 29 18 13 12 8 3 12 5 6 0 68 109 76
1 72 284 277 351 406 392 397 596 621 642 496 418 345 79 43 0 0 0 173 308 326 284 74 23 71 42 0 0 0 0 0 3 8 6 14 3 6 0 72 135 139 54
0 18 311 225 414 395 508 606 622 761 704 442 160 196 104 13 0 0 0 139 237 450 125 391 229 212 5 53 24 2 0 0 2 17 3 9 23 58 94 267 300 306 134
0 3 278 249 421 351 297 778 782 666 21 74 113 70 82 7 0 0 0 214 342 330 383 174 164 115 0 0 3 0 0 0 1 1 1 32 40 108 160 155 71 40 31
0 0 242 176 273 108 97 698 829 785 564 168 70 2 0 1 1 1 10 17 66 95 210 101 0 0 0 0 28 90 0 0 0 3 2 0 0 0 0 312 125 105 120
0 0 84 312 194 279 97 645 853 653 654 375 95 91 62 3 0 1 1 34 58 20 69 48 0 0 0 0 37 210 10 1 6 137 92 63 3 7 83 298 272 172 19
0 0 0 323 271 399 282 427 725 830 704 562 436 331 18 40 1 1 0 1 16 57 34 40 1 0 0 0 0 0 0 0 0 0 2 16 21 27 15 11 7 2 7
0 0 0 213 242 374 374 153 509 835 646 596 529 458 323 221 41 0 0 0 0 336 226 7 1 2 0 0 0 0 0 32 28 25 26 22 6 0 0 0 0 0 0
0 0 0 51 362 195 153 21 9 306 341 99 102 377 372 316 126 57 4 13 5 5 11 0 0 0 0 0 0 0 33 49 45 11 0 0 0 0 0 0 0 0 0
0 4 8 4 152 325 81 0 0 1 12 16 4 0 220 362 292 91 60 118 178 55 16 0 21 83 61 16 0 0 0 0 0 0 0 0 0 0 0 0 0 0 0
5 16 13 0 28 94 292 140 0 0 0 0 0 1 0 0 0 0 0 0 0 0 29 50 30 21 3 2 1 0 0 0 0 0 0 0 0 0 0 0 0 0 0
271 199 0 0 0 0 62 266 151 0 0 0 0 0 0 0 0 0 0 0 0 0 98 0 0 0 0 0 0 0 0 0 0 0 0 0 0 0 0 0 0 0 0
151 0 10 0 0 0 0 33 116 95 2 0 0 0 0 0 0 0 0 0 0 0 0 0 0 0 0 0 0 0 0 0 0 0 0 0 0 0 0 0 0 0 0
130 0 0 0 0 0 0 0 0 0 0 0 0 0 0 0 0 0 0 0 0 0 0 0 0 0 0 0 0 0 0 0 0 0 0 0 0 0 0 0 0 0 0
214 0 0 0 0 0 0 0 0 0 0 0 0 0 0 0 0 0 0 0 0 0 0 0 0 0 0 0 0 0 0 0 0 0 0 0 0 0 0 0 0 0 0
256 50 0 0 0 0 0 0 0 0 0 0 0 0 0 0 0 0 0 0 0 0 0 0 0 0 0 0 0 0 0 0 0 0 0 0 0 0 0 0 0 0 0
227 129 0 0 0 0 0 0 0 0 0 0 0 0 0 0 0 0 0 0 0 0 0 0 0 0 0 0 0 0 0 0 0 0 0 0 0 0 0 0 0 0 0
146 117 0 0 0 0 0 0 0 0 0 0 0 0 0 0 0 0 0 0 0 0 0 0 0 0 0 0 0 0 0 0 0 0 0 0 0 0 0 0 0 0 0
74 87 27 0 0 0 0 0 0 0 0 0 0 0 0 0 0 0 0 0 0 0 0 0 0 0 0 0 0 0 0 0 0 0 0 0 0 0 0 0 0 0 0
53 51 62 9 4 1 1 1 6 1 0 0 0 0 0 0 0 0 0 0 0 0 0 0 0 0 0 0 0 0 0 0 0 0 0 0 0 0 0 0 0 0 0
19 63 76 55 12 0 0 3 9 20 14 5 0 0 0 0 0 0 0 0 0 0 0 0 0 0 0 0 0 0 0 0 0 0 0 0 0 0 0 0 0 1 2
CIN
-28 -1 0 0 0 0 0 0 0 0 0 0 0 0 0 0 0 0 0 0 0 0 0 0 0 0 0 -3 0 -2 -5 -7 -5 0 -5 -15 0 -4 0 0 -8 -2 -1
-47 -8 0 0 0 0 0 0 0 0 0 -2 0 0 0 0 0 0 0 0 0 0 0 0 0 0 0 -1 0 0 0 -25 -5 -14 0 0 0 0 0 -15 0 0 -3
-119 -26 0 0 0 0 0 0 0 0 0 0 0 0 -16 0 -2 -7 -7 -5 -8 0 -2 -5 0 0 -7 -7 -4 0 0 -6 -1 -7 0 -2 -1 -2 0 -20 0 0 -1
-5 -9 0 0 0 0 0 0 0 0 0 0 0 -5 -25 -13 -8 -15 -9 -9 -10 0 -7 -5 -4 -1 -24 -3 -3 -1 0 0 -2 0 -3 0 0 -7 0 0 0 -2 -33
0 -18 0 0 0 0 0 0 0 0 0 0 0 -18 -29 -18 -27 -14 -23 -11 -27 0 0 0 -2 -24 -5 -3 -4 -1 0 -1 0 -1 0 -2 -3 0 -8 -10 -14 -30 -14
-11 -37 0 0 0 0 0 0 0 0 0 0 0 -3 -18 -46 0 0 -3 -4 -2 -3 0 -1 -3 -51 0 0 -6 -27 -1 0 -8 -14 0 0 0 0 0 -1 -3 0 -13
0 -68 0 0 0 0 0 0 0 0 0 0 0 0 -28 -41 0 0 0 -7 -1 -5 0 -11 -10 -3 -9 0 0 0 0 -5 -12 -28 -1 -2 0 -64 0 -4 0 0 -4
0 -152 0 -1 0 0 0 0 0 0 0 0 -6 -2 -9 -14 0 0 0 -13 0 0 0 -1 -2 -1 -1 -1 -1 0 0 0 -13 -14 -41 -28 -31 -13 -8 0 0 -1 -15
0 -59 -11 -2 0 0 0 0 0 -1 -61 -5 0 0 -3 0 0 0 0 0 0 -3 0 -1 0 -1 -1 0 0 0 0 0 0 -7 -9 -28 -25 -6 -3 -1 -12 -5 -15
0 0 -41 -33 -3 -16 -13 0 0 0 0 -2 0 0 0 0 0 0 -3 0 -1 -4 -1 -4 0 0 0 0 -8 0 0 0 0 -1 -2 0 0 0 0 -3 0 0 0
0 0 -154 -31 -38 -6 -29 0 0 0 0 0 -7 -6 0 -19 0 0 0 -1 0 0 0 -1 0 0 0 0 -16 0 -29 -26 -30 0 -1 -2 -41 -41 -4 -1 -6 -1 -13
0 0 -65 -65 -57 -11 -13 -1 0 0 0 0 0 0 -2 -2 0 0 0 -2 -5 -5 -6 -7 -4 0 0 0 0 0 0 0 0 0 -8 -17 -24 -35 -85 -26 -110 -37 -40
0 0 0 -138 -100 -36 -16 -66 -1 0 0 0 0 0 0 -5 -20 0 0 0 -18 -2 0 -33 0 0 0 0 0 0 0 -5 -14 -15 -16 -31 -76 -11 0 0 0 0 0
0 0 0 -241 -98 -133 -118 -185 -150 -26 -10 -57 -49 -1 0 0 -18 -54 -15 -13 -6 -11 -4 0 0 0 0 0 0 0 0 0 -1 -15 0 0 0 0 0 0 0 0 0
0 -202 -329 -181 -212 -125 -205 -18 0 -64 -108 -189 -62 0 -28 -1 -12 -55 -62 -13 -1 -32 -80 0 -37 -7 -10 -34 0 0 0 0 0 0 0 0 0 0 0 0 0 0 0
-337 -314 -327 0 -326 -246 -148 -221 0 0 0 0 0 -40 0 0 0 0 0 0 0 0 -27 -24 -39 -41 0 0 0 0 0 0 0 0 0 0 0 0 0 0 0 0 0
-216 -213 0 0 0 0 -274 -177 -235 0 0 0 0 0 0 0 0 0 0 0 0 0 -39 0 0 0 0 0 0 0 0 0 0 0 0 0 0 0 0 0 0 0 0
-256 0 -215 0 0 0 0 -288 -245 -275 -103 0 0 0 0 0 0 0 0 0 0 0 0 0 0 0 0 0 0 0 0 0 0 0 0 0 0 0 0 0 0 0 0
-250 0 0 0 0 0 0 0 0 0 0 0 0 0 0 0 0 0 0 0 0 0 0 0 0 0 0 0 0 0 0 0 0 0 0 0 0 0 0 0 0 0 0
-224 0 0 0 0 0 0 0 0 0 0 0 0 0 0 0 0 0 0 0 0 0 0 0 0 0 0 0 0 0 0 0 0 0 0 0 0 0 0 0 0 0 0
-195 -271 0 0 0 0 0 0 0 0 0 0 0 0 0 0 0 0 0 0 0 0 0 0 0 0 0 0 0 0 0 0 0 0 0 0 0 0 0 0 0 0 0
-156 -189 0 0 0 0 0 0 0 0 0 0 0 0 0 0 0 0 0 0 0 0 0 0 0 0 0 0 0 0 0 0 0 0 0 0 0 0 0 0 0 0 0
-145 -159 0 0 0 0 0 0 0 0 0 0 0 0 0 0 0 0 0 0 0 0 0 0 0 0 0 0 0 0 0 0 0 0 0 0 0 0 0 0 0 0 0
-156 -165 -199 0 0 0 0 0 0 0 0 0 0 0 0 0 0 0 0 0 0 0 0 0 0 0 0 0 0 0 0 0 0 0 0 0 0 0 0 0 0 0 0
-142 -182 -192 -220 -212 -23 -23 -189 -252 -24 0 0 0 0 0 0 0 0 0 0 0 0 0 0 0 0 0 0 0 0 0 0 0 0 0 0 0 0 0 0 0 0 0
-201 -235 -233 -219 -219 -46 0 -96 -236 -213 -203 -229 0 0 0 0 0 0 0 0 0 0 0 0 0 0 0 0 0 0 0 0 0 0 0 0 0 0 0 0 0 0 0
Wind_Speed
8 7 6 4 4 4 3 4 5 7 7 6 5 4 4 4 2 1 2 4 4 5 5 5 5 5 6 6 5 5 6 4 6 5 10 14 18 16 12 11 10 9 8
8 7 6 5 4 3 4 6 6 7 7 7 6 5 4 2 3 4 5 4 5 5 4 5 7 7 8 5 5 7 8 8 9 14 13 14 13 14 12 12 9 7 5
8 7 6 5 3 4 4 6 5 7 7 6 6 6 3 3 4 4 5 6 6 7 6 5 7 8 7 4 3 8 9 8 11 10 11 11 10 10 11 10 8 6 6
7 7 7 5 4 5 5 7 7 7 7 7 6 7 5 5 4 5 5 6 5 7 7 7 8 9 7 6 6 8 10 10 11 10 11 11 9 8 8 10 8 5 7
8 7 6 6 6 6 6 7 7 7 7 8 9 8 6 5 4 5 6 7 6 6 7 7 7 8 10 6 5 10 11 8 9 11 9 9 9 9 9 6 9 10 7
8 8 7 7 7 7 7 7 8 8 8 8 9 8 7 4 6 5 4 7 7 7 8 9 11 12 11 11 12 11 8 11 10 9 10 10 10 9 8 8 10 10 7
9 8 8 8 8 8 8 8 9 8 7 7 8 8 6 9 5 3 1 6 8 7 10 8 8 8 11 12 15 15 14 13 9 11 12 9 11 10 11 10 11 10 10
10 9 9 8 9 8 8 9 8 8 7 6 4 8 8 7 6 3 4 6 7 8 9 10 10 12 11 10 14 12 10 10 10 7 9 9 9 11 11 8 8 9 10
11 11 10 9 9 8 8 9 9 9 6 6 7 8 9 7 3 5 5 6 9 8 9 7 11 13 10 10 15 11 11 8 10 14 12 8 9 11 9 9 9 11 10
13 12 11 10 10 8 8 8 8 8 10 8 9 8 8 5 4 5 2 6 5 7 8 10 16 11 10 10 9 12 10 9 10 13 10 9 10 7 2 9 10 9 8
13 12 12 11 10 9 8 7 9 8 10 10 9 9 9 7 4 6 8 5 8 6 8 10 7 8 9 6 5 8 10 12 10 12 12 10 10 9 6 4 3 3 8
14 14 13 12 10 9 9 8 8 9 9 10 10 9 7 7 7 5 2 8 8 10 9 9 7 8 9 7 1 11 11 12 11 10 10 10 9 8 6 5 6 8 8
16 14 13 13 11 11 10 9 8 9 8 9 8 9 9 8 7 7 4 8 3 10 9 11 14 8 9 10 8 10 10 8 9 9 9 8 7 7 9 9 10 11 11
16 16 13 13 12 12 9 9 8 8 8 8 8 8 9 9 9 9 9 7 9 10 11 9 7 6 7 11 8 6 7 8 8 8 8 8 8 9 8 8 8 8 8
16 15 14 12 12 12 10 9 9 8 6 7 7 8 9 9 10 10 11 10 9 10 10 8 8 8 8 8 8 7 7 6 7 7 9 9 8 8 8 8 7 8 7
17 14 13 12 12 11 11 8 9 7 7 6 5 1 7 6 15 11 6 9 13 15 9 9 9 9 10 10 9 9 8 8 8 8 8 9 9 9 9 8 8 7 7
17 15 13 13 13 12 12 11 11 3 6 2 1 2 8 13 13 12 10 9 7 9 9 9 8 9 9 10 10 10 10 9 9 8 9 9 9 9 9 8 9 7 7
19 16 14 14 13 13 12 12 11 11 11 10 6 7 6 10 12 12 13 12 6 6 9 9 9 9 9 10 10 10 10 9 9 9 9 9 9 10 10 10 9 9 9
18 15 15 13 13 13 12 12 12 12 12 12 12 7 9 10 10 10 14 10 10 10 10 9 8 9 9 10 10 10 10 10 10 10 10 10 11 11 11 10 10 10 10
18 17 16 13 13 13 12 12 12 12 11 11 12 12 13 9 10 11 10 11 11 11 12 12 11 10 10 11 10 10 11 10 11 11 11 11 11 11 11 11 10 10 11
15 15 15 13 13 13 13 13 12 12 12 12 12 12 14 13 13 14 13 13 14 13 13 13 12 12 12 11 11 11 12 12 12 12 12 11 11 12 12 11 12 12 12
16 15 17 16 14 14 14 13 13 13 13 13 12 11 17 13 13 13 15 14 15 15 13 13 12 12 13 13 13 13 13 14 13 13 12 12 12 12 12 12 12 11 12
15 16 16 16 16 14 13 14 14 14 14 14 13 13 12 14 14 14 14 14 13 13 14 14 13 13 13 13 13 13 14 13 13 13 14 14 14 11 13 12 13 14 14
14 16 15 15 15 16 15 16 15 14 15 15 14 14 13 14 14 16 14 13 13 14 13 13 14 17 15 14 13 13 14 13 12 13 17 14 13 13 14 12 13 15 13
14 14 14 14 15 15 15 14 15 15 15 14 14 14 14 14 14 15 15 14 14 14 15 14 13 18 21 22 19 20 16 11 14 10 11 15 17 18 17 13 14 14 16
14 13 13 12 13 13 13 12 12 12 13 13 14 14 15 15 15 14 14 15 14 15 16 13 15 21 21 20 23 20 8 10 11 9 14 12 13 13 14 15 20 14 20
Wind_Direction
163 159 155 145 125 167 146 153 152 159 164 166 164 129 113 117 134 152 166 136 128 166 159 174 149 151 116 126 125 121 115 109 107 117 126 118 121 126 123 119 115 108 106
160 161 148 141 140 155 148 135 166 163 168 164 163 138 118 158 131 138 157 144 138 119 126 157 163 150 127 141 140 145 131 104 122 116 126 122 125 120 121 112 107 106 112
163 161 144 149 139 128 136 131 170 157 160 162 166 116 138 152 129 139 134 118 139 130 159 140 139 155 112 113 146 143 131 126 129 123 120 112 111 119 114 110 110 100 115
163 166 135 139 131 137 128 119 149 146 150 151 143 105 131 118 113 136 116 113 119 133 140 150 139 133 140 121 128 127 130 127 129 131 118 121 123 116 112 117 113 122 123
162 158 136 139 142 139 122 124 128 139 142 130 122 126 128 124 116 121 122 120 125 123 112 103 86 85 108 127 128 128 127 132 124 132 126 120 123 128 131 126 125 129 135
161 152 149 144 154 136 134 134 133 131 139 140 134 125 121 115 82 70 112 124 123 114 107 95 100 104 85 75 84 82 112 130 121 127 129 134 131 122 126 138 133 138 127
165 147 156 147 153 148 144 136 129 128 135 130 123 118 124 124 115 104 50 121 121 131 105 114 108 114 121 106 88 86 79 80 101 130 129 129 122 138 144 165 154 164 138
168 157 156 162 149 146 144 133 134 132 124 124 83 127 132 122 137 163 283 147 123 124 126 131 136 122 113 126 113 95 79 87 107 120 120 124 131 146 170 152 148 99 113
169 163 164 156 154 150 144 144 141 120 124 134 138 140 136 140 175 199 251 148 135 120 123 110 116 102 108 102 118 100 94 84 69 93 101 115 154 169 163 133 145 150 155
172 168 167 159 152 152 141 144 152 140 118 129 138 133 130 146 185 186 185 117 121 119 111 100 69 95 99 114 115 121 114 124 126 127 126 122 118 100 144 195 180 167 159
172 168 167 163 159 144 143 147 155 157 120 127 123 142 142 140 138 147 129 135 131 124 120 118 116 106 98 100 151 128 127 135 134 138 144 143 143 153 158 167 224 160 170
173 173 168 165 174 155 152 152 158 148 145 136 139 137 138 149 132 134 161 163 172 128 139 139 128 102 84 49 41 108 130 153 141 144 145 148 152 147 130 112 73 56 47
174 175 171 171 179 162 163 162 160 169 159 159 162 140 142 148 142 107 143 141 150 151 158 123 119 120 115 88 102 132 174 149 146 148 147 148 147 121 127 123 113 106 90
176 175 175 178 178 173 175 174 171 178 171 173 162 152 147 149 147 155 154 152 133 114 124 124 133 121 47 99 145 189 174 162 162 150 150 133 133 159 159 148 144 142 126
179 178 178 183 186 178 195 182 184 186 183 179 165 161 162 169 161 158 166 169 172 141 139 153 171 179 171 163 163 180 155 158 175 156 152 161 164 164 160 165 159 161 159
181 181 182 183 179 187 191 175 56 27 120 58 29 131 141 111 125 142 136 105 114 147 185 178 181 182 183 181 179 182 185 188 185 171 170 178 174 177 171 177 181 192 171
185 181 182 195 179 188 192 191 188 130 61 67 9 290 35 144 144 145 137 114 129 161 211 189 189 191 195 190 194 195 196 192 190 190 186 189 185 190 173 184 191 186 174
188 174 188 196 185 189 191 194 198 190 194 190 210 215 156 143 145 142 140 143 156 221 229 201 203 199 204 203 205 205 204 190 200 202 198 195 194 193 190 193 191 187 179
187 181 195 191 191 194 188 194 200 200 195 196 184 177 120 104 136 149 175 204 198 204 213 228 214 211 208 211 209 212 210 207 199 204 202 200 199 201 196 202 194 188 176
192 186 190 187 190 194 197 196 197 201 200 204 197 190 171 160 180 179 197 216 221 214 211 217 218 218 215 216 214 214 209 205 197 209 208 205 204 207 205 204 198 182 187
186 181 191 193 196 192 199 201 201 199 200 203 207 200 170 195 203 204 197 209 216 220 217 214 213 212 214 215 214 211 213 210 211 212 212 211 206 205 211 201 197 184 186
187 183 187 198 193 194 200 201 206 207 207 206 206 192 156 195 212 210 211 209 218 224 225 221 221 218 213 212 213 214 214 213 212 212 215 214 209 210 210 205 195 187 176
191 190 187 198 197 193 192 203 205 210 211 212 212 206 183 205 218 220 214 216 212 219 224 228 227 226 224 218 214 217 220 218 215 209 211 212 209 205 208 201 189 184 180
199 201 192 202 200 194 198 203 206 209 211 213 212 217 203 203 214 221 225 217 218 218 220 223 226 227 225 224 216 220 219 223 222 216 212 216 209 193 206 186 192 175 173
209 201 202 203 205 205 198 205 210 212 210 221 215 214 218 214 209 219 221 221 218 220 221 221 222 225 227 228 222 220 218 190 220 215 204 215 214 203 201 180 177 162 151
220 199 209 203 206 199 208 200 212 219 232 215 227 224 218 218 216 213 216 218 218 219 219 218 223 225 222 224 229 227 182 179 186 194 203 203 204 193 185 179 160 162 162